Weather History for Kahului, HI

Change the Weather History Date:

Thursday, November 1, 2012

  Actual Average Record
Temperature  
Mean Temperature 74 °F 77 °F  
Max Temperature 85 °F 86 °F 93 °F (1950)
Min Temperature 62 °F 69 °F 62 °F (2012)
Degree Days  
Heating Degree Days 0 0  
Month to date heating degree days 0 0  
Since 1 July heating degree days 12 0  
Cooling Degree Days 9 12  
Month to date cooling degree days 9 12  
Year to date cooling degree days 3351 3388  
Growing Degree Days 23 (Base 50)    
Moisture  
Dew Point 64 °F    
Average Humidity 74    
Maximum Humidity 93    
Minimum Humidity 55    
Precipitation  
Precipitation T in 0.05 in 1.77 in (1961)
Month to date precipitation T 0.05  
Year to date precipitation 4.71 12.33  
Snow  
Snow 0.00 in - - ()
Month to date snowfall 0.0  
Since 1 July snowfall 0.0  
Since 1 September snowfall 0.0  
Snow Depth 0.00 in    
Sea Level Pressure  
Sea Level Pressure 30.00 in    
Wind  
Wind Speed 9 mph (East)    
Max Wind Speed 22 mph    
Max Gust Speed 26 mph    
Visibility 10 miles    
Events      
T = Trace of Precipitation, MM = Missing Value Source: NWS Daily Summary

Daily Weather History Graph

Daily Weather History Graph

Search for Another Location

Airport:

Trip Planner

Search our weather history database for the weather conditions in past years. The results will help you decide how hot, cold, wet, or windy it might be!

Date:

Astronomy

Nov. 01, 2012 Rise Set
Actual Time 6:28 AM HST 5:49 PM HST
Civil Twilight 6:05 AM HST 6:12 PM HST
Nautical Twilight 5:39 AM HST 6:38 PM HST
Astronomical Twilight 5:13 AM HST 7:04 PM HST
Moon 8:11 PM HST (11/1) 8:55 AM HST (11/1)
Length of Visible Light 12h 06m
Length of Day
11h 21m
Waning Gibbous, 92% of the Moon is Illuminated
Nov 1
Waning Gibbous
Nov 6
Last Quarter
Nov 13
New
Nov 20
First Quarter
Nov 28
Full

Hourly Weather History & Observations

Time (HST) Temp. Heat Index Dew Point Humidity Pressure Visibility Wind Dir Wind Speed Gust Speed Precip Events Conditions
12:54 AM 66.0 °F - 64.0 °F 93% 30.04 in 10.0 mi SE 4.6 mph - N/A   Clear
1:54 AM 64.0 °F - 63.0 °F 96% 30.01 in 10.0 mi SSE 5.8 mph - N/A   Clear
2:54 AM 64.9 °F - 62.1 °F 90% 30.00 in 10.0 mi SSE 5.8 mph - N/A   Clear
3:54 AM 64.9 °F - 62.1 °F 90% 30.00 in 10.0 mi ESE 4.6 mph - N/A   Clear
4:54 AM 63.0 °F - 61.0 °F 93% 30.00 in 10.0 mi Calm Calm - N/A   Clear
5:54 AM 63.0 °F - 59.0 °F 87% 30.01 in 10.0 mi ESE 8.1 mph - N/A   Partly Cloudy
6:54 AM 63.0 °F - 60.1 °F 90% 30.02 in 10.0 mi SE 6.9 mph - N/A   Clear
7:54 AM 70.0 °F - 63.0 °F 78% 30.03 in 10.0 mi SE 3.5 mph - N/A   Clear
8:54 AM 75.9 °F - 64.0 °F 67% 30.04 in 10.0 mi Variable 4.6 mph - 0.00 in   Clear
9:54 AM 81.0 °F 83.0 °F 66.0 °F 60% 30.04 in 10.0 mi NE 9.2 mph - 0.00 in   Clear
10:54 AM 84.0 °F 86.3 °F 66.0 °F 55% 30.04 in 10.0 mi NE 17.3 mph - N/A   Partly Cloudy
11:54 AM 84.0 °F 87.0 °F 68.0 °F 58% 30.01 in 10.0 mi NE 17.3 mph 24.2 mph N/A   Partly Cloudy
12:54 PM 84.0 °F 87.0 °F 68.0 °F 58% 30.00 in 10.0 mi NE 19.6 mph - N/A   Partly Cloudy
1:54 PM 84.0 °F 86.3 °F 66.0 °F 55% 29.97 in 10.0 mi NE 17.3 mph - N/A   Partly Cloudy
2:54 PM 82.9 °F 85.0 °F 66.0 °F 56% 29.96 in 10.0 mi NE 18.4 mph - N/A   Partly Cloudy
3:54 PM 82.0 °F 83.8 °F 64.9 °F 56% 29.95 in 10.0 mi NE 16.1 mph 23.0 mph N/A   Partly Cloudy
4:54 PM 80.1 °F 81.5 °F 63.0 °F 56% 29.96 in 10.0 mi ENE 13.8 mph 20.7 mph N/A   Partly Cloudy
5:54 PM 77.0 °F - 64.9 °F 66% 29.97 in 10.0 mi NNE 11.5 mph - N/A   Partly Cloudy
6:54 PM 73.9 °F - 63.0 °F 68% 29.98 in 10.0 mi NE 8.1 mph - N/A   Clear
7:54 PM 73.0 °F - 64.0 °F 73% 30.01 in 10.0 mi East 8.1 mph - N/A   Partly Cloudy
8:54 PM 70.0 °F - 63.0 °F 78% 30.01 in 10.0 mi Calm Calm - N/A   Partly Cloudy
9:54 PM 70.0 °F - 64.9 °F 84% 30.02 in 10.0 mi SE 5.8 mph - N/A   Clear
10:54 PM 66.0 °F - 63.0 °F 90% 30.02 in 10.0 mi SSE 5.8 mph - N/A   Clear
11:54 PM 64.9 °F - 63.0 °F 93% 30.01 in 10.0 mi SSE 5.8 mph - N/A   Clear